Zurück zum Katalog

STARLINK-36283

AktivKommunikationVLEO
NORAD 67197·PAYLOAD·🇺🇸 United States

Gestartet Dec 17, 2025 von Vandenberg Space Force Base

Loading…

Nächste Überflüge (nächste 24 Stunden)

TLE

AktuellSource: CelesTrak SupGP

Epoche: Sep 14, 2026, 15:51 UTC

1 67197C 25304F   26257.66090278 -.00028714  00000+0 -24065-2 0  2573
2 67197  70.0013  57.8677 0002801 270.7068  94.3778 14.98343165    17

Verfolge STARLINK-36283 in Echtzeit mit AllMySat

Download on the App Store